When you browse on this site, cookies collect data to enhance your experience and personalize the content and advertising you see.
Visit our Privacy Policy to learn more. By continuing to use the site, you agree to this use of cookies and data.
  • In Romania
  • List of Countries
  • For 7 days
  • Water Temperature
  • Satellite Maps
  • Weather Map
  • Weather Widgets
  • user-avatar
    Login

    Hourly Weather Tbilisi

    Today, 24 May, Friday

    Time Temperature Precipitation Wind Pressure Humidity
    00:00 +14°C° 0 mm 2 mps 700 mmHg 83%
    01:00 +14°C° 0 mm 2 mps 700 mmHg 82%
    02:00 +13°C° 0 mm 2 mps 700 mmHg 81%
    03:00 +13°C° 0 mm 2 mps 700 mmHg 80%
    04:00 +14°C° 0 mm 1 mps 700 mmHg 80%
    05:00 +14°C° 0 mm 1 mps 700 mmHg 79%
    06:00 +14°C° 0 mm 1 mps 700 mmHg 78%
    07:00 +16°C° 0 mm 1 mps 700 mmHg 72%
    08:00 +19°C° 0 mm 1 mps 700 mmHg 66%
    09:00 +21°C° 0 mm 1 mps 700 mmHg 60%
    10:00 +23°C° 0 mm 2 mps 700 mmHg 56%
    11:00 +24°C° 0 mm 2 mps 700 mmHg 52%
    12:00 +26°C° 0 mm 2 mps 700 mmHg 48%
    13:00 +26°C° 0 mm 2 mps 700 mmHg 47%
    14:00 +27°C° 0 mm 2 mps 700 mmHg 47%
    15:00 +27°C° 0 mm 2 mps 700 mmHg 46%
    16:00 +26°C° 0 mm 2 mps 700 mmHg 50%
    17:00 +26°C° 0 mm 2 mps 700 mmHg 55%
    18:00 +25°C° 0 mm 1 mps 700 mmHg 60%
    19:00 +23°C° 0.1 mm 1 mps 700 mmHg 66%
    20:00 +21°C° 0.1 mm 1 mps 700 mmHg 72%
    21:00 +20°C° 0.1 mm 1 mps 701 mmHg 78%
    22:00 +19°C° 0.9 mm 1 mps 701 mmHg 80%
    23:00 +19°C° 0.9 mm 1 mps 701 mmHg 81%

    Tomorrow, 25 May, Saturday

    Time Temperature Precipitation Wind Pressure Humidity
    00:00 +18°C° 0.9 mm 1 mps 701 mmHg 82%
    01:00 +18°C° 0.3 mm 1 mps 701 mmHg 82%
    02:00 +18°C° 0.3 mm 1 mps 701 mmHg 82%
    03:00 +18°C° 0.3 mm 1 mps 701 mmHg 82%
    04:00 +18°C° 0.1 mm 1 mps 701 mmHg 82%
    05:00 +18°C° 0.1 mm 1 mps 701 mmHg 81%
    06:00 +18°C° 0.1 mm 1 mps 701 mmHg 80%
    07:00 +19°C° 0 mm 1 mps 700 mmHg 76%
    08:00 +20°C° 0 mm 1 mps 700 mmHg 72%
    09:00 +21°C° 0 mm 1 mps 700 mmHg 68%
    10:00 +23°C° 0 mm 2 mps 700 mmHg 64%
    11:00 +24°C° 0 mm 2 mps 700 mmHg 59%
    12:00 +26°C° 0 mm 2 mps 700 mmHg 55%
    13:00 +25°C° 0.5 mm 2 mps 699 mmHg 60%
    14:00 +24°C° 0.5 mm 2 mps 699 mmHg 65%
    15:00 +24°C° 0.5 mm 1 mps 699 mmHg 70%
    16:00 +24°C° 0.1 mm 1 mps 699 mmHg 69%
    17:00 +24°C° 0.1 mm 1 mps 699 mmHg 68%
    18:00 +24°C° 0.1 mm 1 mps 698 mmHg 66%
    19:00 +21°C° 1.5 mm 2 mps 699 mmHg 71%
    20:00 +20°C° 1.5 mm 2 mps 699 mmHg 76%
    21:00 +18°C° 1.5 mm 2 mps 700 mmHg 81%
    22:00 +18°C° 1.5 mm 2 mps 700 mmHg 83%
    23:00 +17°C° 1.5 mm 2 mps 700 mmHg 85%

    Day after tomorrow, 26 May, Sunday

    Time Temperature Precipitation Wind Pressure Humidity
    00:00 +16°C° 1.5 mm 2 mps 700 mmHg 87%
    01:00 +16°C° 0.2 mm 2 mps 700 mmHg 87%
    02:00 +16°C° 0.2 mm 2 mps 700 mmHg 87%
    03:00 +15°C° 0.2 mm 2 mps 700 mmHg 87%
    04:00 +16°C° 0 mm 2 mps 700 mmHg 86%
    05:00 +16°C° 0 mm 2 mps 700 mmHg 84%
    06:00 +16°C° 0 mm 1 mps 700 mmHg 83%
    07:00 +19°C° 0 mm 1 mps 700 mmHg 75%
    08:00 +22°C° 0 mm 1 mps 700 mmHg 67%
    09:00 +24°C° 0 mm 1 mps 701 mmHg 58%
    10:00 +25°C° 0.2 mm 1 mps 701 mmHg 54%
    11:00 +27°C° 0.2 mm 1 mps 701 mmHg 49%
    12:00 +29°C° 0.2 mm 1 mps 701 mmHg 44%
    13:00 +29°C° 0.2 mm 1 mps 700 mmHg 43%
    14:00 +29°C° 0.2 mm 2 mps 700 mmHg 42%
    15:00 +29°C° 0.2 mm 2 mps 700 mmHg 40%
    16:00 +27°C° 0 mm 3 mps 700 mmHg 46%
    17:00 +26°C° 0 mm 3 mps 700 mmHg 52%
    18:00 +24°C° 0 mm 3 mps 700 mmHg 57%
    19:00 +22°C° 0.1 mm 3 mps 701 mmHg 64%
    20:00 +20°C° 0.1 mm 3 mps 701 mmHg 71%
    21:00 +18°C° 0.1 mm 3 mps 702 mmHg 78%
    22:00 +17°C° 0.1 mm 3 mps 702 mmHg 80%
    23:00 +17°C° 0.1 mm 2 mps 702 mmHg 82%

    27 May, Monday

    Time Temperature Precipitation Wind Pressure Humidity
    00:00 +16°C° 0.1 mm 2 mps 702 mmHg 84%
    01:00 +16°C° 0 mm 2 mps 702 mmHg 86%
    02:00 +14°C° 0 mm 3 mps 702 mmHg 87%
    03:00 +13°C° 0 mm 3 mps 702 mmHg 89%
    04:00 +14°C° 0 mm 3 mps 702 mmHg 87%
    05:00 +14°C° 0 mm 3 mps 703 mmHg 85%
    06:00 +14°C° 0 mm 3 mps 703 mmHg 84%
    07:00 +17°C° 0 mm 3 mps 703 mmHg 74%
    08:00 +19°C° 0 mm 3 mps 703 mmHg 64%
    09:00 +21°C° 0 mm 3 mps 704 mmHg 55%
    10:00 +24°C° 0 mm 3 mps 704 mmHg 49%
    11:00 +25°C° 0 mm 3 mps 704 mmHg 43%
    12:00 +26°C° 0 mm 3 mps 704 mmHg 38%
    13:00 +27°C° 0 mm 3 mps 704 mmHg 37%
    14:00 +27°C° 0 mm 3 mps 704 mmHg 36%
    15:00 +28°C° 0 mm 3 mps 704 mmHg 35%
    16:00 +27°C° 0 mm 3 mps 704 mmHg 39%
    17:00 +26°C° 0 mm 2 mps 704 mmHg 44%
    18:00 +25°C° 0 mm 2 mps 704 mmHg 48%
    19:00 +23°C° 0 mm 2 mps 705 mmHg 53%
    20:00 +20°C° 0 mm 2 mps 705 mmHg 58%
    21:00 +18°C° 0 mm 2 mps 705 mmHg 63%
    22:00 +17°C° 0 mm 2 mps 705 mmHg 64%
    23:00 +16°C° 0 mm 2 mps 705 mmHg 65%

    28 May, Tuesday

    Time Temperature Precipitation Wind Pressure Humidity
    00:00 +16°C° 0 mm 1 mps 705 mmHg 66%
    01:00 +15°C° 0 mm 1 mps 705 mmHg 65%
    02:00 +15°C° 0 mm 1 mps 705 mmHg 64%
    03:00 +14°C° 0 mm 1 mps 705 mmHg 63%
    04:00 +15°C° 0 mm 1 mps 706 mmHg 62%
    05:00 +16°C° 0 mm 1 mps 706 mmHg 61%
    06:00 +16°C° 0 mm 1 mps 706 mmHg 60%
    07:00 +19°C° 0 mm 1 mps 706 mmHg 58%
    08:00 +21°C° 0 mm 1 mps 706 mmHg 55%
    09:00 +23°C° 0 mm 1 mps 706 mmHg 53%
    10:00 +24°C° 0 mm 2 mps 706 mmHg 51%
    11:00 +25°C° 0 mm 2 mps 706 mmHg 49%
    12:00 +26°C° 0 mm 3 mps 706 mmHg 47%
    13:00 +26°C° 0 mm 3 mps 705 mmHg 46%
    14:00 +27°C° 0 mm 3 mps 705 mmHg 45%
    15:00 +27°C° 0 mm 3 mps 705 mmHg 44%
    16:00 +27°C° 0 mm 2 mps 705 mmHg 47%
    17:00 +26°C° 0 mm 2 mps 705 mmHg 50%
    18:00 +25°C° 0 mm 2 mps 705 mmHg 54%
    19:00 +24°C° 0 mm 1 mps 705 mmHg 59%
    20:00 +22°C° 0 mm 1 mps 706 mmHg 64%
    21:00 +20°C° 0 mm 1 mps 706 mmHg 69%
    22:00 +20°C° 0 mm 1 mps 706 mmHg 70%
    23:00 +19°C° 0 mm 1 mps 706 mmHg 72%

    29 May, Wednesday

    Time Temperature Precipitation Wind Pressure Humidity
    00:00 +19°C° 0 mm 1 mps 706 mmHg 73%
    01:00 +18°C° 0 mm 1 mps 706 mmHg 74%
    02:00 +18°C° 0 mm 1 mps 706 mmHg 75%
    03:00 +16°C° 0 mm 1 mps 705 mmHg 76%
    04:00 +18°C° 0 mm 1 mps 705 mmHg 75%
    05:00 +16°C° 0 mm 0 mps 705 mmHg 74%
    06:00 +16°C° 0 mm 0 mps 705 mmHg 72%
    07:00 +20°C° 0 mm 1 mps 705 mmHg 67%
    08:00 +22°C° 0 mm 1 mps 705 mmHg 62%
    09:00 +24°C° 0 mm 1 mps 705 mmHg 57%
    10:00 +25°C° 0 mm 1 mps 705 mmHg 52%
    11:00 +26°C° 0 mm 2 mps 705 mmHg 47%
    12:00 +28°C° 0 mm 2 mps 705 mmHg 42%
    13:00 +28°C° 0 mm 2 mps 704 mmHg 39%
    14:00 +29°C° 0 mm 3 mps 704 mmHg 37%
    15:00 +29°C° 0 mm 3 mps 704 mmHg 35%
    16:00 +29°C° 0 mm 2 mps 704 mmHg 38%
    17:00 +28°C° 0 mm 2 mps 704 mmHg 42%
    18:00 +27°C° 0 mm 1 mps 704 mmHg 46%
    19:00 +25°C° 0.1 mm 1 mps 704 mmHg 51%
    20:00 +22°C° 0.1 mm 1 mps 704 mmHg 57%
    21:00 +20°C° 0.1 mm 1 mps 704 mmHg 62%
    22:00 +20°C° 0 mm 1 mps 704 mmHg 65%
    23:00 +19°C° 0 mm 1 mps 704 mmHg 67%
    Show more